STARLINK-32442, 61729

Orbit data source: Space-Track

STARLINK-32442, 61729 is a payload satellite owned by SpaceX/Seattle (US) in LEO that was launched on Wed, 30 Oct 2024 UTC via an FALCON 9 launch vehicle from the Air Force Eastern Test Range (AFETR). Payload-class satellites include a variety of spacecraft equipped with specific instruments for various scientific and technological missions. These include communications satellites like Starlink; space stations such as the ISS; scientific satellites like the Hubble; Earth observation satellites from companies like Planet Labs, Umbra, and HawkEye 360; GPS; miniature CubeSats for education and research; and military/defense satellites.

Loading next visibility...
Identifier
61729, 2024-196Y
Orbit
LEO
Country
Flag of USUS
Related business
Manufacturer
SpaceX/Seattle
Mission
Operational Commercial Communications
Bus & Motor
STARLINK V2M, Unknown motor
Mass
730 kg wet, ~700 kg dry
Launch date (UTC)
2024-10-30 (11 months ago)
Launch vehicle
FALCON 9
Launch site
Air Force Eastern Test Range (AFETR)
Object type
Payload
Rocket body
Debris
Shape & HBR
Box + 2 Pan, 14.5 m
Radar Cross Section
36.964 m², Large (>1 m²)

Expand to show TLE details & history
Last TLE update: 11 hours ago

TLE from 11 hours ago
0 STARLINK-32442
1 61729U 24196Y   25259.53736211  .00001806  00000-0  73080-4 0  9995
2 61729  53.1619 190.2181 0001696  85.5170 274.6024 15.30199816 50498
Epoch: 2025-09-16T12:53Z
TLE epoch observation values (Epoch: 2025-09-16T12:53:48.086Z)
Latitude
-0.00005°
Longitude
1.04146°
Altitude
476.022 km
Speed
7.629 km/s
True Right ascension
12h 40m 52s
True Declination
0° 00' 00"
Sunlit
Object was in daylight at epoch
Visualization orbit readout
Latitude
Unknown
Longitude
Unknown
Altitude
Unknown
Speed
Unknown
Apparent Right ascension
Unknown
Apparent Declination
Unknown
Sunlit
N/A
Visualization observer readout
Local Sidereal Time
16:16:26
Azimuth
Unknown
Elevation
Unknown
Doppler factor
Unknown
Orbital elements
Apogee altitude
476.634 km
Perigee altitude
474.309 km
Semi-major axis
6,853.609 km
Eccentricity
0.00017
Inclination
53.1619°
RAAN
190.2181°
Arg. of periapsis
85.517°
True anomaly
274.58303°
Mean anomaly
274.6024°
Eccentric anomaly
274.59271°
Mean motion
3.82529 °/min
Orbital period
94.11 mins
BSTAR
0.00007308
Loading maneuver chart data...
Computing Atmospheric mass density...
Loading historical data...
Loading historical data...
Loading historical data...
Loading historical data...
Loading historical data...
Loading historical data...
Loading historical data...

Documentation

Showing up to 5 results
|